sat.trackr.live / text

‹ back to catalog

STARLINK-36883

NORAD 67975 · 2026-038Q

PAYLOAD ACTIVE UNKNOWN

§ Identity

Operator
Country
US
Launch date
2026-02-25
Launch site
AFWTR
Launch vehicle
Mass (kg)
RCS (m²)

Purposes: comms

External: N2YO · Heavens-Above · Gunter

§ Orbital elements

Epoch: 2026-09-19T23:05:20.050368Z

Period
93.90 min
Inclination
97.2851°
Eccentricity
0.0003232
Mean motion
15.33475163 rev/d
Perigee alt
463.2 km
Apogee alt
467.7 km
Semi-major
6,843.6 km
B*
8.0579e-4
RAAN
271.3509°
Arg perigee
83.9644°
Mean anomaly
276.1967°
Rev number
3,301

§ Raw data

STARLINK-368831 67975U 26038Q   26262.96203762  .00026057  00000+0  80579-3 0  99972 67975  97.2851 271.3509 0003232  83.9644 276.1967 15.33475163 33012

JSON: /api/v1/satellites/67975 · /tle

For live sub-satellite position, see the globe view (requires WebGL).

§ Visibility from observer

Set your observer location to see the next 7 days of passes ≥ 10°. The values pass through the URL so the page stays shareable.

No JS? Fill the form by hand. The geolocation button needs JavaScript.